[[{"header":{"parameterUnit":"m.s-1","parameterCategory":1,"la1":30.2991,"la2":30.254,"lo1":-89.0895,"lo2":-89.0444,"dy":0.0017,"dx":0.0017,"nx":28,"ny":28,"refTime":"2024-03-27T21:00:00:Z","depth":0,"parameterNumber":2,"parameterNumberName":"U-component_of_WINDS"},"data":[0,0,0,0,0,0,0,0,0,0,0,0,0,0,0,0,0,0,0,0,0,0,0,0,0,0,0,0,0,0,0,0,0,0,0,0,0,0,0,0,0,0,0,0,0,0,0,0,0,0,0,0,0,0,0,0,0,0,-3.1541,-3.1541,0,-3.1556,-3.1557,-3.1557,-3.1468,-3.1466,-3.1463,-3.1461,-3.1478,-3.1481,-3.1484,0,0,0,0,0,0,0,0,0,0,0,0,0,-3.1438,-3.1441,-3.1541,-3.1541,-3.1541,-3.1556,-3.1557,-3.1557,-3.1469,-3.1466,-3.1463,-3.146,-3.1477,-3.1481,-3.1484,0,0,0,0,0,0,0,0,0,0,0,0,0,-3.1471,-3.1441,-3.1541,-3.1499,-3.1496,-3.1556,-3.1557,-3.1557,-3.147,-3.1466,-3.1462,-3.1458,-3.1476,-3.148,-3.1484,-3.1586,0,0,-3.1497,-3.1499,0,0,0,0,0,0,0,0,-3.147,-3.1475,-3.1505,-3.1502,-3.1498,-3.1507,-3.1527,-3.1567,-3.1471,-3.148,-3.1461,-3.1457,-3.1491,-3.1494,-3.1505,-3.1587,-3.1588,-3.1498,-3.15,-3.1502,-3.1503,0,0,0,0,0,0,0,-3.1467,-3.1474,-3.1547,-3.1506,-3.1502,-3.1481,-3.1481,-3.1534,-3.1506,-3.1478,-3.1472,-3.1475,-3.1488,-3.1501,-3.1505,-3.1588,-3.1498,-3.1501,-3.1504,-3.1506,-3.1757,-3.1761,0,0,0,0,0,0,-3.147,-3.1473,-3.1547,-3.1547,-3.1474,-3.1486,-3.1486,-3.1508,-3.1505,-3.1501,-3.1478,-3.1471,-3.1496,-3.15,-3.1505,-3.1624,-3.1502,-3.1506,-3.1508,-3.1753,-3.1758,-3.1762,0,0,0,0,0,0,-3.1468,-3.1478,-3.1546,-3.1508,-3.1516,-3.1492,-3.1516,-3.151,-3.1523,-3.1505,-3.15,-3.1496,-3.1493,-3.1499,-3.1567,-3.1623,-3.1508,-3.1512,-3.1748,-3.1754,-3.176,-3.1864,0,0,0,0,0,0,-3.1466,-3.1478,-3.1515,-3.151,-3.1518,-3.1607,-3.152,-3.1513,-3.153,-3.152,-3.1521,-3.1517,-3.149,-3.1561,-3.1571,-3.1627,-3.1515,-3.1742,-3.1751,-3.1758,-3.1855,-3.1873,-3.1888,0,0,0,0,0,-3.1463,-3.1543,-3.1517,-3.1527,-3.1564,-3.161,-3.1615,-3.1582,-3.1535,-3.1573,-3.1562,-3.1517,-3.1617,-3.1569,-3.1579,-3.1638,-3.1739,-3.1748,-3.1757,-3.1848,-3.1869,-3.1887,0,0,0,0,0,0,-3.1555,-3.1542,-3.1513,-3.1594,-3.1604,-3.1595,-3.1642,-3.1606,-3.1629,-3.1619,-3.1578,-3.1579,-3.1655,-3.1653,-3.1601,-3.1737,-3.1669,-3.1681,-3.1735,-3.1755,-3.1771,-3.1769,-3.1518,0,0,0,0,0,-3.1585,-3.1623,-3.161,-3.1683,-3.169,-3.1666,-3.1685,-3.1659,-3.1667,-3.1671,-3.1665,-3.1676,-3.171,-3.1733,-3.1763,-3.1856,-3.1855,-3.1901,-3.1918,-3.1931,-3.1941,-3.1991,-3.2012,-3.1793,-3.1793,-3.1792,0,0,-3.1647,-3.1645,-3.1671,-3.1702,-3.1706,-3.1748,-3.1669,-3.1716,-3.1746,-3.1678,-3.1741,-3.1739,-3.1748,-3.183,-3.1865,-3.1831,-3.2002,-3.1943,-3.1954,-3.1956,-3.2003,-3.2024,-3.2042,-3.1799,-3.1798,-3.1797,0,0,-3.1781,-3.1783,-3.1844,-3.1852,-3.186,-3.1844,-3.1859,-3.1857,-3.1852,-3.1915,-3.1866,-3.1902,-3.1961,-3.197,-3.1982,-3.2124,-3.2084,-3.2136,-3.222,-3.2269,-3.2287,-3.2302,-3.2352,-3.237,-3.2146,-3.2147,-3.2147,0,-3.1857,-3.1916,-3.1881,-3.1931,-3.1947,-3.1889,-3.1951,-3.196,-3.1978,-3.1991,-3.1953,-3.2026,-3.2029,-3.2112,-3.2147,-3.2159,-3.2175,-3.2134,-3.2287,-3.2302,-3.2315,-3.2363,-3.2382,-3.2153,-3.2152,-3.2151,-3.2151,0,-3.2009,-3.2051,-3.21,-3.2119,-3.2141,-3.2197,-3.2172,-3.2199,-3.2173,-3.2161,-3.2228,-3.2229,-3.2259,-3.2278,-3.2252,-3.2358,-3.2337,-3.2294,-3.2224,-3.2343,-3.2387,-3.2405,-3.2161,-3.2159,-3.2157,-3.2156,0,0,-3.2197,-3.2199,-3.2217,-3.2226,-3.2233,-3.2265,-3.2321,-3.235,-3.2373,-3.239,-3.2435,-3.2488,-3.2449,-3.2463,-3.2439,-3.2483,-3.2595,-3.2434,-3.2434,-3.2463,-3.2713,-3.2743,-3.2765,-3.257,-3.2574,-3.2576,-3.2711,0,-3.2327,-3.2419,-3.2391,-3.2485,-3.2524,-3.2472,-3.252,-3.2531,-3.2523,-3.2556,-3.2547,-3.2585,-3.2531,-3.254,-3.2581,-3.2573,-3.2645,-3.2563,-3.2612,-3.2614,-3.2609,-3.2788,-3.282,-3.2947,-3.2728,-3.2731,-3.2733,0,-3.2489,-3.2512,-3.261,-3.2612,-3.2627,-3.2671,-3.2697,-3.2729,-3.2741,-3.2733,-3.2751,-3.2719,-3.2774,-3.2708,-3.2785,-3.273,-3.2749,-3.2749,-3.2753,-3.2754,-3.2679,-3.2793,-3.2987,-3.3006,-3.276,-3.2758,-3.2756,0,-3.2615,-3.2671,-3.2737,-3.2746,-3.2751,-3.2783,-3.2787,-3.2795,-3.2815,-3.2839,-3.2852,-3.2882,-3.2898,-3.2923,-3.2901,-3.2854,-3.2981,-3.2912,-3.2976,-3.2976,-3.3002,-3.3,-3.3201,-3.3018,-3.3018,-3.3018,-3.3017,0,-3.2762,-3.2823,-3.2794,-3.2834,-3.2902,-3.2871,-3.294,-3.2938,-3.2947,-3.2987,-3.2945,-3.2983,-3.2952,-3.2989,-3.2972,-3.3039,-3.3047,-3.3042,-3.3036,-3.3044,-3.3045,-3.3054,-3.3044,-3.3023,-3.3022,-3.3021,-3.302,0,-3.2912,-3.2895,-3.2963,-3.2963,-3.2965,-3.3016,-3.3016,-3.3054,-3.3045,-3.3096,-3.3106,-3.3092,-3.3133,-3.3114,-3.3157,-3.3146,-3.3232,-3.3215,-3.3227,-3.3222,-3.3286,-3.328,-3.3498,-3.3525,-3.3327,-3.3329,-3.333,0,-3.3006,-3.3052,-3.3058,-3.3081,-3.3088,-3.3127,-3.3148,-3.3121,-3.3145,-3.3164,-3.32,-3.3238,-3.3266,-3.3335,-3.3328,-3.3362,-3.3345,-3.342,-3.335,-3.3357,-3.3345,-3.3342,-3.3346,-3.3432,-3.3435,-3.3437,-3.3438,0,-3.3173,-3.3163,-3.3194,-3.3224,-3.325,-3.3272,-3.3291,-3.3313,-3.3287,-3.3317,-3.3358,-3.3381,-3.3426,-3.3464,-3.3494,-3.3499,-3.3465,-3.3461,-3.3477,-3.3484,-3.3489,-3.3487,-3.3263,-3.3455,-3.3453,-3.3452,-3.3451,-3.3451,-3.3296,-3.3336,-3.3346,-3.3384,-3.3395,-3.3414,-3.345,-3.3447,-3.3481,-3.3515,-3.3498,-3.3547,-3.3561,-3.3597,-3.3608,-3.3646,-3.3617,-3.3641,-3.3646,-3.3652,-3.366,-3.3485,-3.3652,-3.3652,-3.3651,-3.3651,-3.365,0,-3.346,-3.3465,-3.35,-3.3528,-3.3558,-3.3525,-3.3545,-3.3572,-3.3615,-3.3631,-3.3661,-3.371,-3.3748,-3.3746,-3.3782,-3.3813,-3.3799,-3.3823,-3.3819,-3.3821,-3.3685,-3.3667,-3.3835,-3.3834,-3.3834,-3.3834,-3.3834,-3.3834,-3.3549,-3.3613,-3.3606,-3.3677,-3.3682,-3.3729,-3.3743,-3.3761,-3.3774,-3.383,-3.3862,-3.3861,-3.387,-3.3907,-3.3941,-3.3939,-3.3954,-3.3984,-3.3977,-3.3849,-3.3831,-3.3813,-3.3796,-3.3988,-3.3988,-3.411,-3.4111,-3.4112]},{"header":{"parameterUnit":"m.s-1","parameterCategory":1,"la1":30.2991,"la2":30.254,"lo1":-89.0895,"lo2":-89.0444,"dy":0.0017,"dx":0.0017,"nx":28,"ny":28,"refTime":"2024-03-27T21:00:00:Z","depth":0,"parameterNumber":3,"parameterNumberName":"V-component_of_WINDS"},"data":[0,0,0,0,0,0,0,0,0,0,0,0,0,0,0,0,0,0,0,0,0,0,0,0,0,0,0,0,0,0,0,0,0,0,0,0,0,0,0,0,0,0,0,0,0,0,0,0,0,0,0,0,0,0,0,0,0,0,3.1145,3.1145,0,3.1137,3.1137,3.1137,3.1172,3.1173,3.1174,3.1175,3.1161,3.116,3.1159,0,0,0,0,0,0,0,0,0,0,0,0,0,3.1186,3.1185,3.1145,3.1145,3.1145,3.1138,3.1137,3.1137,3.1172,3.1173,3.1175,3.1176,3.1162,3.116,3.1159,0,0,0,0,0,0,0,0,0,0,0,0,0,3.1172,3.1185,3.1145,3.1162,3.1163,3.1138,3.1137,3.1137,3.1172,3.1173,3.1175,3.1176,3.1162,3.1161,3.1159,3.1115,0,0,3.1152,3.1152,0,0,0,0,0,0,0,0,3.1173,3.117,3.1159,3.116,3.1162,3.1158,3.1147,3.113,3.1171,3.1168,3.1175,3.1177,3.1159,3.1157,3.1152,3.1114,3.1114,3.1152,3.1151,3.115,3.115,0,0,0,0,0,0,0,3.1174,3.1171,3.1142,3.1159,3.1161,3.1168,3.1168,3.1144,3.1154,3.1169,3.1171,3.117,3.116,3.1154,3.1152,3.1114,3.1152,3.1151,3.1149,3.1149,3.1041,3.1039,0,0,0,0,0,0,3.1173,3.1171,3.1142,3.1142,3.1171,3.1166,3.1166,3.1157,3.1155,3.1156,3.1169,3.1172,3.1156,3.1154,3.1151,3.11,3.115,3.1148,3.1147,3.1042,3.104,3.1038,0,0,0,0,0,0,3.1174,3.117,3.1143,3.1157,3.1154,3.1164,3.1154,3.1156,3.1151,3.1155,3.1157,3.1161,3.1158,3.1154,3.1124,3.11,3.1147,3.1146,3.1044,3.1042,3.1039,3.0998,0,0,0,0,0,0,3.1175,3.117,3.1155,3.1157,3.1154,3.1117,3.1152,3.1155,3.1148,3.1152,3.1148,3.1149,3.1159,3.1127,3.1122,3.1099,3.1144,3.1046,3.1043,3.104,3.1001,3.0994,3.0988,0,0,0,0,0,3.1176,3.1142,3.1154,3.115,3.1135,3.1115,3.1113,3.1126,3.1146,3.1129,3.1133,3.1149,3.1104,3.1124,3.1119,3.1094,3.1048,3.1044,3.104,3.1004,3.0996,3.0988,0,0,0,0,0,0,3.1134,3.1142,3.1155,3.1121,3.1118,3.1121,3.1101,3.1116,3.1106,3.1109,3.1124,3.1123,3.109,3.1089,3.1111,3.1052,3.1079,3.1074,3.1054,3.1046,3.1039,3.1039,3.1142,0,0,0,0,0,3.1121,3.1107,3.1114,3.1083,3.1081,3.1091,3.1083,3.1094,3.109,3.1088,3.1089,3.1083,3.1067,3.1057,3.1043,3.1002,3.1002,3.0983,3.0976,3.0971,3.0966,3.0944,3.0936,3.1026,3.1026,3.1026,0,0,3.1094,3.1096,3.1086,3.1075,3.1073,3.1056,3.109,3.107,3.1057,3.1084,3.1057,3.1057,3.1051,3.1016,3.1001,3.1014,3.0941,3.0966,3.0962,3.0959,3.0939,3.0931,3.0923,3.1024,3.1024,3.1025,0,0,3.1035,3.1036,3.101,3.1009,3.1007,3.1015,3.1008,3.101,3.1012,3.0986,3.1006,3.099,3.0963,3.0959,3.0953,3.0894,3.0909,3.0889,3.0854,3.0833,3.0826,3.0819,3.0798,3.079,3.0884,3.0884,3.0884,0,3.1,3.0977,3.0995,3.0974,3.0969,3.0995,3.0969,3.0966,3.0959,3.0953,3.097,3.0937,3.0935,3.0899,3.0886,3.088,3.0873,3.0888,3.0826,3.0819,3.0814,3.0793,3.0785,3.0882,3.0882,3.0882,3.0883,0,3.0934,3.0918,3.0897,3.0892,3.0884,3.0861,3.0874,3.0864,3.0875,3.0881,3.0853,3.0852,3.0839,3.0831,3.0842,3.0797,3.0806,3.0823,3.0851,3.0802,3.0783,3.0776,3.0878,3.0879,3.088,3.0881,0,0,3.0846,3.0853,3.0845,3.0843,3.0844,3.0831,3.0809,3.0798,3.0789,3.0783,3.0764,3.0742,3.0759,3.0752,3.0763,3.0745,3.0698,3.0765,3.0765,3.0751,3.0648,3.0633,3.0624,3.0709,3.0707,3.0706,3.0648,0,3.0788,3.0752,3.0768,3.073,3.0714,3.0741,3.0721,3.0719,3.0724,3.0711,3.0716,3.07,3.0724,3.072,3.0704,3.0707,3.0677,3.0712,3.0689,3.0688,3.0688,3.0614,3.0599,3.0544,3.0641,3.064,3.0639,0,3.0714,3.0709,3.0669,3.0674,3.0668,3.0651,3.0642,3.063,3.0628,3.0633,3.0627,3.0642,3.0619,3.0648,3.0616,3.064,3.0632,3.0632,3.0631,3.0627,3.0659,3.0608,3.0527,3.0518,3.0627,3.0628,3.0629,0,3.0653,3.0635,3.061,3.0608,3.0612,3.06,3.0601,3.0601,3.0593,3.0586,3.0581,3.057,3.0564,3.0555,3.0566,3.0586,3.0532,3.0562,3.0534,3.0534,3.052,3.0521,3.0435,3.0517,3.0518,3.0518,3.0518,0,3.0586,3.056,3.0583,3.0566,3.0539,3.0558,3.0529,3.0533,3.0533,3.0517,3.0539,3.0523,3.054,3.0526,3.0534,3.0507,3.0504,3.0506,3.0508,3.0503,3.0503,3.0497,3.0501,3.0516,3.0516,3.0517,3.0517,0,3.0512,3.0526,3.05,3.0508,3.0509,3.0488,3.0494,3.0479,3.0487,3.0466,3.0463,3.0474,3.0458,3.047,3.0453,3.0459,3.0423,3.0431,3.0424,3.0426,3.0397,3.0399,3.0304,3.0292,3.0382,3.0382,3.0381,0,3.0467,3.0449,3.0455,3.0448,3.0448,3.0435,3.0428,3.0446,3.0438,3.0435,3.042,3.0407,3.0398,3.0372,3.0377,3.0365,3.0372,3.034,3.037,3.0366,3.0371,3.0371,3.0369,3.0333,3.0332,3.0331,3.033,0,3.0386,3.0395,3.0385,3.0378,3.0371,3.0366,3.0362,3.0354,3.0373,3.0362,3.0348,3.0341,3.0326,3.0312,3.0303,3.0302,3.0318,3.0321,3.0314,3.0308,3.0304,3.0305,3.0406,3.0323,3.0323,3.0324,3.0324,3.0325,3.0325,3.031,3.0313,3.0302,3.0302,3.0298,3.0285,3.0292,3.0281,3.0271,3.0283,3.0265,3.0264,3.0253,3.0251,3.0237,3.025,3.0239,3.0236,3.0233,3.0229,3.0308,3.0235,3.0235,3.0235,3.0236,3.0236,0,3.0244,3.0248,3.0238,3.0234,3.0225,3.0244,3.0242,3.0233,3.0217,3.0216,3.0207,3.0191,3.0178,3.0184,3.0172,3.016,3.0167,3.0156,3.0156,3.0156,3.0218,3.0225,3.015,3.015,3.015,3.015,3.015,3.015,3.0201,3.0177,3.0186,3.0162,3.0165,3.015,3.0147,3.0143,3.0143,3.0124,3.0114,3.0119,3.012,3.011,3.0098,3.01,3.0095,3.0081,3.0085,3.0143,3.0151,3.0159,3.0166,3.008,3.0079,3.0024,3.0023,3.0023]}]]